DW2738 Weather Reports


Display with metric or nautical units.
time (UTC)temp
F
wind
direction
speed
MPH
gust
MPH
rain 1hr
in
rain 24hr
in
rain mn
in
humidity
%
barometer
mb
20260504050548 40 255 0.0 0.0 0.00 0.00 0.00 81 1014.8
20260504045542 40 255 0.0 1.0 0.00 0.00 0.00 81 1014.8
20260504045037 40 240 0.0 1.0 0.00 0.00 0.00 81 1014.6
20260504044535 40 191 1.0 2.0 0.00 0.00 0.00 81 1014.4
20260504044032 40 286 0.0 0.0 0.00 0.00 0.00 80 1014.5
20260504043529 40 195 0.0 0.0 0.00 0.00 0.00 79 1014.5
20260504043026 40 200 0.0 1.0 0.00 0.00 0.00 80 1014.7
20260504042523 40 345 0.0 1.0 0.00 0.00 0.00 81 1014.7
20260504042020 40 14 0.0 0.0 0.00 0.00 0.00 79 1014.7
20260504041516 40 209 1.0 1.0 0.00 0.00 0.00 79 1014.5
20260504041012 40 180 0.0 2.0 0.00 0.00 0.00 79 1014.5
20260504040510 40 270 0.0 0.0 0.00 0.00 0.00 79 1014.7
20260504040006 40 325 0.0 1.0 0.00 0.00 0.00 78 1014.5
20260504035503 40 246 1.0 2.0 0.00 0.00 0.00 79 1014.6
20260504034959 40 254 0.0 1.0 0.00 0.00 0.00 80 1014.7
20260504034457 40 180 0.0 0.0 0.00 0.00 0.00 79 1014.3
20260504033954 40 180 0.0 1.0 0.00 0.00 0.00 77 1014.5
20260504033452 40 212 0.0 1.0 0.00 0.00 0.00 77 1014.1
20260504032949 40 246 0.0 1.0 0.00 0.00 0.00 77 1014.3
20260504032446 41 270 0.0 1.0 0.00 0.00 0.00 78 1014.3
20260504031942 41 254 0.0 1.0 0.00 0.00 0.00 78 1014.3
20260504031439 41 270 0.0 0.0 0.00 0.00 0.00 77 1014.2
20260504030936 41 246 0.0 1.0 0.00 0.00 0.00 77 1014.3
20260504030433 42 270 0.0 0.0 0.00 0.00 0.00 75 1014.2
20260504025929 42 270 0.0 1.0 0.00 0.00 0.00 75 1014.4
20260504025426 42 180 0.0 1.0 0.00 0.00 0.00 74 1014.2
20260504024923 42 203 0.0 1.0 0.00 0.00 0.00 73 1014.3
20260504024420 42 203 0.0 1.0 0.00 0.00 0.00 75 1014.4
20260504023917 42 270 0.0 0.0 0.00 0.00 0.00 75 1014.3
20260504023413 42 270 0.0 0.0 0.00 0.00 0.00 72 1014.2
20260504022909 42 270 0.0 0.0 0.00 0.00 0.00 73 1014.2
20260504022406 42 270 0.0 0.0 0.00 0.00 0.00 72 1014.2
20260504021902 42 270 0.0 0.0 0.00 0.00 0.00 72 1014.0
20260504021400 43 270 0.0 0.0 0.00 0.00 0.00 73 1014.1
20260504020857 43 270 0.0 1.0 0.00 0.00 0.00 71 1014.2
20260504020353 43 195 0.0 0.0 0.00 0.00 0.00 70 1014.3
20260504015849 43 195 0.0 0.0 0.00 0.00 0.00 69 1014.2
20260504015346 43 195 0.0 0.0 0.00 0.00 0.00 72 1014.3
20260504014842 44 209 0.0 1.0 0.00 0.00 0.00 70 1014.1
20260504014338 44 337 0.0 0.0 0.00 0.00 0.00 68 1014.1
20260504013836 44 337 0.0 0.0 0.00 0.00 0.00 65 1014.1
20260504013333 45 353 0.0 0.0 0.00 0.00 0.00 64 1014.1
20260504012830 45 353 0.0 0.0 0.00 0.00 0.00 64 1014.1
20260504012328 46 151 0.0 0.0 0.00 0.00 0.00 65 1014.0
20260504011825 45 166 0.0 1.0 0.00 0.00 0.00 67 1013.9
20260504011321 45 246 0.0 0.0 0.00 0.00 0.00 67 1013.9
20260504010817 45 246 0.0 0.0 0.00 0.00 0.00 65 1013.6
20260504010313 46 246 0.0 0.0 0.00 0.00 0.00 68 1013.6
20260504005810 46 246 0.0 0.0 0.00 0.00 0.00 67 1013.5
20260504005307 46 246 0.0 0.0 0.00 0.00 0.00 66 1013.3
20260504004804 46 246 0.0 0.0 0.00 0.00 0.00 62 1013.4
20260504004302 47 254 0.0 0.0 0.00 0.00 0.00 61 1013.2
20260504003758 47 188 0.0 0.0 0.00 0.00 0.00 60 1013.2
20260504003255 48 188 0.0 0.0 0.00 0.00 0.00 61 1013.1
20260504002751 48 188 0.0 0.0 0.00 0.00 0.00 59 1013.2
20260504002249 49 188 0.0 0.0 0.00 0.00 0.00 58 1013.1
20260504001746 49 188 0.0 0.0 0.00 0.00 0.00 56 1013.2
20260504001243 50 261 0.0 0.0 0.00 0.00 0.00 55 1012.9
20260504000740 51 261 0.0 0.0 0.00 0.00 0.00 54 1012.9
20260504000236 51 220 0.0 0.0 0.00 0.00 0.00 52 1012.9
20260503235735 52 345 0.0 1.0 0.00 0.00 0.00 50 1013.0
20260503235232 52 243 1.0 2.0 0.00 0.00 0.00 49 1013.0
20260503234730 53 180 0.0 0.0 0.00 0.00 0.00 45 1012.8
20260503234227 54 180 0.0 0.0 0.00 0.00 0.00 46 1012.6
20260503233725 55 180 0.0 0.0 0.00 0.00 0.00 44 1012.7
20260503233220 55 261 0.0 2.0 0.00 0.00 0.00 43 1012.5
20260503232717 56 265 2.0 3.0 0.00 0.00 0.00 43 1012.7
20260503232214 56 262 3.0 4.0 0.00 0.00 0.00 40 1012.6
20260503231713 57 258 2.0 3.0 0.00 0.00 0.00 40 1012.5
20260503231208 57 262 4.0 4.0 0.00 0.00 0.00 40 1012.5
20260503230705 57 262 2.0 4.0 0.00 0.00 0.00 38 1012.4
20260503230203 57 248 2.0 3.0 0.00 0.00 0.00 41 1012.4
20260503225659 58 221 2.0 2.0 0.00 0.00 0.00 41 1012.5
20260503225154 58 194 0.0 2.0 0.00 0.00 0.00 40 1012.4
20260503224652 58 262 1.0 4.0 0.00 0.00 0.00 38 1012.4
20260503224149 58 244 3.0 4.0 0.00 0.00 0.00 36 1012.5
20260503223647 58 234 1.0 4.0 0.00 0.00 0.00 37 1012.5
20260503223143 59 248 2.0 3.0 0.00 0.00 0.00 38 1012.4
20260503222640 59 270 0.0 6.0 0.00 0.00 0.00 35 1012.6
20260503222138 59 281 4.0 7.0 0.00 0.00 0.00 37 1012.3
20260503221636 59 239 5.0 5.0 0.00 0.00 0.00 37 1012.4
20260503221133 59 232 2.0 4.0 0.00 0.00 0.00 37 1012.6
20260503220630 59 270 1.0 4.0 0.00 0.00 0.00 37 1012.5
20260503220126 59 225 3.0 4.0 0.00 0.00 0.00 37 1012.3
20260503215624 59 267 4.0 6.0 0.00 0.00 0.00 36 1012.4
20260503215120 59 250 2.0 6.0 0.00 0.00 0.00 38 1012.4
20260503214619 59 270 2.0 8.0 0.00 0.00 0.00 36 1012.2
20260503214115 59 300 0.0 7.0 0.00 0.00 0.00 36 1012.3
20260503213614 59 244 4.0 5.0 0.00 0.00 0.00 36 1012.4
20260503213110 59 270 0.0 4.0 0.00 0.00 0.00 36 1011.9
20260503212608 59 289 3.0 12.0 0.00 0.00 0.00 35 1012.1
20260503212105 59 238 8.0 8.0 0.00 0.00 0.00 36 1012.1
20260503211603 60 290 4.0 7.0 0.00 0.00 0.00 35 1012.0
20260503211057 60 290 0.0 5.0 0.00 0.00 0.00 38 1012.2
20260503210554 60 214 4.0 5.0 0.00 0.00 0.00 35 1012.2
20260503210050 60 215 6.0 8.0 0.00 0.00 0.00 34 1012.0
20260503205547 60 189 3.0 7.0 0.00 0.00 0.00 36 1012.1
20260503205043 60 189 3.0 7.0 0.00 0.00 0.00 36 1012.1
20260503204541 60 257 5.0 6.0 0.00 0.00 0.00 35 1012.2
20260503204038 60 195 1.0 6.0 0.00 0.00 0.00 34 1012.2
20260503203535 60 249 6.0 10.0 0.00 0.00 0.00 34 1012.1
20260503203032 61 257 3.0 8.0 0.00 0.00 0.00 34 1012.1
20260503202530 61 270 6.0 10.0 0.00 0.00 0.00 32 1012.3
20260503202027 62 266 5.0 7.0 0.00 0.00 0.00 33 1012.1
20260503201526 62 263 5.0 7.0 0.00 0.00 0.00 33 1012.2
20260503201022 62 180 0.0 7.0 0.00 0.00 0.00 33 1012.2
20260503200518 62 265 0.0 6.0 0.00 0.00 0.00 33 1012.1
20260503200015 62 326 3.0 7.0 0.00 0.00 0.00 37 1012.0
20260503195513 61 261 4.0 7.0 0.00 0.00 0.00 33 1012.2
20260503195009 61 2 4.0 5.0 0.00 0.00 0.00 34 1012.2
20260503194507 61 246 1.0 7.0 0.00 0.00 0.00 34 1012.3
20260503194006 61 235 3.0 5.0 0.00 0.00 0.00 36 1012.4
20260503193503 60 273 4.0 10.0 0.00 0.00 0.00 33 1012.3
20260503192958 61 237 0.0 5.0 0.00 0.00 0.00 34 1012.3
20260503192455 60 293 2.0 5.0 0.00 0.00 0.00 35 1012.3
20260503191950 61 268 5.0 5.0 0.00 0.00 0.00 35 1012.4
20260503191448 61 265 4.0 6.0 0.00 0.00 0.00 36 1012.2
20260503190944 59 270 3.0 12.0 0.00 0.00 0.00 35 1012.6
20260503190442 60 248 7.0 9.0 0.00 0.00 0.00 35 1012.4
20260503185939 60 225 0.0 8.0 0.00 0.00 0.00 36 1012.8
20260503185435 60 239 5.0 6.0 0.00 0.00 0.00 35 1012.6
20260503184934 60 297 3.0 6.0 0.00 0.00 0.00 38 1012.6
20260503184431 61 248 3.0 6.0 0.00 0.00 0.00 37 1012.6
20260503183927 61 261 3.0 10.0 0.00 0.00 0.00 36 1013.0
20260503183424 59 277 3.0 5.0 0.00 0.00 0.00 38 1013.0
20260503182921 59 311 0.0 6.0 0.00 0.00 0.00 40 1012.8
20260503182420 59 257 4.0 5.0 0.00 0.00 0.00 37 1013.1
20260503181917 59 281 3.0 6.0 0.00 0.00 0.00 38 1012.9
20260503181414 57 189 5.0 6.0 0.00 0.00 0.00 40 1013.2
20260503180910 59 250 0.0 5.0 0.00 0.00 0.00 40 1012.9
20260503180408 59 263 3.0 7.0 0.00 0.00 0.00 38 1012.9
20260503175904 59 227 6.0 7.0 0.00 0.00 0.00 42 1012.8
20260503175403 58 240 5.0 5.0 0.00 0.00 0.00 38 1013.2
20260503174858 58 211 3.0 6.0 0.00 0.00 0.00 41 1012.9
20260503174356 58 252 6.0 9.0 0.00 0.00 0.00 41 1013.1
20260503173851 57 66 4.0 6.0 0.00 0.00 0.00 41 1012.8
20260503173348 59 262 3.0 6.0 0.00 0.00 0.00 40 1013.0
20260503172844 58 270 3.0 5.0 0.00 0.00 0.00 40 1012.8
20260503172342 56 187 2.0 6.0 0.00 0.00 0.00 42 1013.1
20260503171838 58 280 3.0 6.0 0.00 0.00 0.00 39 1013.2
20260503171335 59 241 2.0 5.0 0.00 0.00 0.00 41 1013.0
20260503170832 58 69 0.0 9.0 0.00 0.00 0.00 41 1012.8
20260503170329 57 196 4.0 6.0 0.00 0.00 0.00 41 1013.2
20260503150721 53 205 6.0 6.0 0.00 0.00 0.00 48 1013.3
20260503150217 54 254 3.0 4.0 0.00 0.00 0.00 49 1013.4
20260503140141 53 250 2.0 5.0 0.00 0.00 0.00 53 1013.5
20260503131111 51 337 1.0 5.0 0.00 0.00 0.00 54 1013.1
20260503130609 52 68 3.0 9.0 0.00 0.00 0.00 53 1013.2
20260503130106 50 262 1.0 4.0 0.00 0.00 0.00 59 1013.0
20260503110458 44 256 3.0 3.0 0.00 0.00 0.00 79 1012.4
20260503090344 37 229 0.0 2.0 0.00 0.00 0.00 89 1010.2
20260503081312 38 0 0.0 0.0 0.00 0.00 0.00 87 1010.3
20260503080808 38 0 0.0 0.0 0.00 0.00 0.00 87 1010.3
20260503080305 38 0 0.0 0.0 0.00 0.00 0.00 86 1010.3
20260503072742 40 353 0.0 0.0 0.00 0.00 0.00 84 1010.0
20260503072238 40 255 0.0 0.0 0.00 0.00 0.00 84 1010.1
20260503071735 40 255 0.0 0.0 0.00 0.00 0.00 82 1009.8
20260503071232 41 246 0.0 1.0 0.00 0.00 0.00 82 1010.0
20260503070728 41 255 0.0 1.0 0.00 0.00 0.00 80 1010.0
20260503070226 41 240 0.0 1.0 0.00 0.00 0.00 79 1009.9
20260503060151 46 345 0.0 0.0 0.00 0.00 0.00 70 1010.5
20260503054638 47 286 0.0 3.0 0.00 0.00 0.00 68 1010.3
20260503054135 47 254 0.0 0.0 0.00 0.00 0.00 67 1010.4
20260503053633 48 246 0.0 1.0 0.00 0.00 0.00 67 1010.4
20260503053132 48 259 0.0 2.0 0.00 0.00 0.00 65 1010.4
20260503052627 49 283 0.0 4.0 0.00 0.00 0.00 64 1010.2
20260503052124 48 287 0.0 2.0 0.00 0.00 0.00 69 1010.3
20260503051619 48 294 0.0 3.0 0.00 0.00 0.00 70 1010.7
20260503051117 47 239 2.0 2.0 0.00 0.00 0.00 71 1010.7